CFG5LW LGSK-EDDF

Flight info

Callsign CFG5LW
Flight time N/A
Altitude 36000
Route TSL UL617 MAKED DCT SKJ DCT LONTA UL608 DOLEV DCT VAMET DCT SIMBA DCT AKINI T161 DEBHI DEBHI1C
Aircraft A320/M-SDE3FGHIRWY/LB1

Departure

Time 2026-05-09 11:04
Airport Skiathos Island National Airport (LGSK)

Arrival

Time N/A
Airport Frankfurt Main Airport (EDDF)
Time Latitude Longitude Altitude Speed Heading
2026-05-09 10:43 39.17951 23.50251 37 ft 0 kts 288°
2026-05-09 10:59 39.17946 23.50272 39 ft 4 kts 285°
2026-05-09 10:59 39.17940 23.50306 39 ft 4 kts 274°
2026-05-09 10:59 39.17942 23.50339 39 ft 4 kts 244°
2026-05-09 10:59 39.17954 23.50356 38 ft 1 kts 199°
2026-05-09 11:00 39.17957 23.50357 40 ft 0 kts 199°
2026-05-09 11:01 39.17946 23.50357 40 ft 7 kts 173°
2026-05-09 11:02 39.17948 23.50459 43 ft 18 kts 51°
2026-05-09 11:02 39.18047 23.50517 48 ft 15 kts 20°
2026-05-09 11:02 39.18163 23.50570 52 ft 19 kts 18°
2026-05-09 11:02 39.18303 23.50630 55 ft 23 kts 20°
2026-05-09 11:03 39.18455 23.50698 59 ft 18 kts 15°
2026-05-09 11:03 39.18514 23.50724 61 ft 3 kts 123°
2026-05-09 11:03 39.18508 23.50721 54 ft 0 kts 193°
2026-05-09 11:03 39.18506 23.50720 54 ft 8 kts 194°
2026-05-09 11:04 39.18144 23.50559 52 ft 99 kts 199°
2026-05-09 11:04 39.17255 23.50161 111 ft 160 kts 199°
2026-05-09 11:04 39.16183 23.49712 871 ft 165 kts 197°
2026-05-09 11:04 39.15061 23.49268 1641 ft 174 kts 197°
2026-05-09 11:05 39.13871 23.48829 2120 ft 187 kts 190°
2026-05-09 11:05 39.12562 23.49217 2390 ft 210 kts 144°
2026-05-09 11:05 39.11757 23.50857 2766 ft 232 kts 102°
2026-05-09 11:05 39.11970 23.52967 3191 ft 250 kts 63°
2026-05-09 11:06 39.12260 23.53638 3340 ft 258 kts 56°